• In Latvia
  • List of Countries
  • For 7 days
  • Water Temperature
  • Satellite Maps
  • Weather Map
  • Weather Widgets
  • user-avatar
    Login

    Hourly Weather Satif

    Today, 21 February, Wednesday

    Time Temperature Precipitation Wind Pressure Humidity
    00:00 +4°C° 0.5 mm 3 mps 665 mmHg 89%
    01:00 +5°C° 0.4 mm 2 mps 665 mmHg 90%
    02:00 +5°C° 0.4 mm 2 mps 664 mmHg 91%
    03:00 +5°C° 0.4 mm 2 mps 664 mmHg 92%
    04:00 +5°C° 0.6 mm 2 mps 664 mmHg 91%
    05:00 +6°C° 0.6 mm 1 mps 663 mmHg 91%
    06:00 +6°C° 0.6 mm 1 mps 663 mmHg 91%
    07:00 +6°C° 0.4 mm 1 mps 663 mmHg 89%
    08:00 +6°C° 0.4 mm 1 mps 663 mmHg 87%
    09:00 +7°C° 0.4 mm 1 mps 663 mmHg 85%
    10:00 +7°C° 0.5 mm 1 mps 663 mmHg 83%
    11:00 +6°C° 0.5 mm 2 mps 663 mmHg 81%
    12:00 +7°C° 0.5 mm 3 mps 662 mmHg 78%
    13:00 +7°C° 1.2 mm 3 mps 662 mmHg 79%
    14:00 +5°C° 1.2 mm 3 mps 661 mmHg 79%
    15:00 +5°C° 1.2 mm 4 mps 661 mmHg 79%
    16:00 +5°C° 0.7 mm 3 mps 661 mmHg 82%
    17:00 +4°C° 0.7 mm 3 mps 660 mmHg 85%
    18:00 +5°C° 0.7 mm 2 mps 660 mmHg 88%
    19:00 +4°C° 0.6 mm 2 mps 660 mmHg 89%
    20:00 +3°C° 0.6 mm 3 mps 661 mmHg 89%
    21:00 +2°C° 0.6 mm 3 mps 661 mmHg 90%
    22:00 +2°C° 0.1 mm 3 mps 661 mmHg 89%
    23:00 +1°C° 0.1 mm 3 mps 661 mmHg 88%

    Tomorrow, 22 February, Thursday

    Time Temperature Precipitation Wind Pressure Humidity
    00:00 +1°C° 0.1 mm 3 mps 661 mmHg 87%
    01:00 0°C° 0 mm 3 mps 660 mmHg 87%
    02:00 0°C° 0 mm 3 mps 660 mmHg 87%
    03:00 -1°C° 0 mm 2 mps 660 mmHg 87%
    04:00 -1°C° 0 mm 2 mps 660 mmHg 87%
    05:00 -1°C° 0 mm 2 mps 660 mmHg 88%
    06:00 -1°C° 0 mm 2 mps 660 mmHg 88%
    07:00 0°C° 0.1 mm 3 mps 660 mmHg 83%
    08:00 +1°C° 0.1 mm 3 mps 661 mmHg 78%
    09:00 +1°C° 0.1 mm 4 mps 662 mmHg 74%
    10:00 +1°C° 0.2 mm 4 mps 662 mmHg 70%
    11:00 +3°C° 0.2 mm 4 mps 662 mmHg 67%
    12:00 +4°C° 0.2 mm 4 mps 662 mmHg 63%
    13:00 +4°C° 0.2 mm 4 mps 662 mmHg 64%
    14:00 +4°C° 0.2 mm 4 mps 662 mmHg 64%
    15:00 +3°C° 0.2 mm 4 mps 662 mmHg 65%
    16:00 +3°C° 0.1 mm 4 mps 662 mmHg 69%
    17:00 +2°C° 0.1 mm 3 mps 662 mmHg 74%
    18:00 +1°C° 0.1 mm 3 mps 662 mmHg 79%
    19:00 +1°C° 0 mm 2 mps 662 mmHg 81%
    20:00 +2°C° 0 mm 1 mps 662 mmHg 83%
    21:00 +1°C° 0 mm 1 mps 662 mmHg 86%
    22:00 +1°C° 0 mm 1 mps 662 mmHg 86%
    23:00 +1°C° 0 mm 1 mps 662 mmHg 86%

    Day after tomorrow, 23 February, Friday

    Time Temperature Precipitation Wind Pressure Humidity
    00:00 0°C° 0 mm 1 mps 662 mmHg 87%
    01:00 0°C° 0 mm 1 mps 661 mmHg 85%
    02:00 0°C° 0 mm 1 mps 661 mmHg 84%
    03:00 0°C° 0 mm 1 mps 661 mmHg 82%
    04:00 0°C° 0 mm 1 mps 661 mmHg 80%
    05:00 0°C° 0 mm 1 mps 661 mmHg 78%
    06:00 0°C° 0 mm 1 mps 661 mmHg 75%
    07:00 -1°C° 0.2 mm 2 mps 662 mmHg 72%
    08:00 +1°C° 0.2 mm 2 mps 662 mmHg 68%
    09:00 +3°C° 0.2 mm 2 mps 663 mmHg 64%
    10:00 +3°C° 0.2 mm 2 mps 663 mmHg 65%
    11:00 +4°C° 0.2 mm 2 mps 663 mmHg 65%
    12:00 +3°C° 0.2 mm 3 mps 663 mmHg 65%
    13:00 +4°C° 0 mm 3 mps 663 mmHg 62%
    14:00 +4°C° 0 mm 3 mps 663 mmHg 59%
    15:00 +5°C° 0 mm 3 mps 663 mmHg 55%
    16:00 +5°C° 0 mm 2 mps 663 mmHg 61%
    17:00 +4°C° 0 mm 2 mps 663 mmHg 67%
    18:00 +3°C° 0 mm 1 mps 663 mmHg 73%
    19:00 +3°C° 0 mm 1 mps 663 mmHg 76%
    20:00 +2°C° 0 mm 1 mps 664 mmHg 78%
    21:00 +1°C° 0 mm 0 mps 664 mmHg 81%
    22:00 +1°C° 0 mm 0 mps 664 mmHg 82%
    23:00 0°C° 0 mm 0 mps 664 mmHg 83%

    24 February, Saturday

    Time Temperature Precipitation Wind Pressure Humidity
    00:00 0°C° 0 mm 0 mps 664 mmHg 83%
    01:00 +1°C° 0 mm 1 mps 664 mmHg 82%
    02:00 +1°C° 0 mm 1 mps 663 mmHg 81%
    03:00 +1°C° 0 mm 1 mps 663 mmHg 80%
    04:00 +1°C° 0 mm 1 mps 663 mmHg 78%
    05:00 +1°C° 0 mm 1 mps 663 mmHg 77%
    06:00 +2°C° 0 mm 1 mps 663 mmHg 75%
    07:00 +3°C° 0 mm 1 mps 664 mmHg 68%
    08:00 +4°C° 0 mm 2 mps 664 mmHg 62%
    09:00 +5°C° 0 mm 2 mps 665 mmHg 55%
    10:00 +7°C° 0 mm 2 mps 665 mmHg 52%
    11:00 +8°C° 0 mm 3 mps 665 mmHg 49%
    12:00 +9°C° 0 mm 3 mps 665 mmHg 46%
    13:00 +9°C° 0.1 mm 3 mps 664 mmHg 49%
    14:00 +8°C° 0.1 mm 4 mps 664 mmHg 52%
    15:00 +7°C° 0.1 mm 4 mps 664 mmHg 55%
    16:00 +7°C° 0.2 mm 3 mps 664 mmHg 62%
    17:00 +6°C° 0.2 mm 2 mps 664 mmHg 68%
    18:00 +6°C° 0.2 mm 1 mps 664 mmHg 75%
    19:00 +6°C° 0.4 mm 1 mps 664 mmHg 78%
    20:00 +6°C° 0.4 mm 1 mps 664 mmHg 80%
    21:00 +5°C° 0.4 mm 1 mps 665 mmHg 83%
    22:00 +5°C° 0.1 mm 1 mps 665 mmHg 86%
    23:00 +5°C° 0.1 mm 1 mps 665 mmHg 88%

    25 February, Sunday

    Time Temperature Precipitation Wind Pressure Humidity
    00:00 +3°C° 0.1 mm 2 mps 665 mmHg 91%
    01:00 +3°C° 0 mm 2 mps 665 mmHg 91%
    02:00 +3°C° 0 mm 2 mps 665 mmHg 92%
    03:00 +3°C° 0 mm 2 mps 665 mmHg 93%
    04:00 +3°C° 0.1 mm 2 mps 665 mmHg 92%
    05:00 +3°C° 0.1 mm 2 mps 665 mmHg 91%
    06:00 +2°C° 0.1 mm 2 mps 666 mmHg 90%
    07:00 +2°C° 0.1 mm 3 mps 666 mmHg 84%
    08:00 +3°C° 0.1 mm 3 mps 667 mmHg 78%
    09:00 +4°C° 0.1 mm 3 mps 667 mmHg 72%
    10:00 +4°C° 0 mm 3 mps 668 mmHg 68%
    11:00 +5°C° 0 mm 4 mps 668 mmHg 63%
    12:00 +5°C° 0 mm 4 mps 668 mmHg 59%
    13:00 +5°C° 0 mm 4 mps 668 mmHg 58%
    14:00 +6°C° 0 mm 4 mps 668 mmHg 58%
    15:00 +6°C° 0 mm 4 mps 668 mmHg 57%
    16:00 +5°C° 0 mm 3 mps 668 mmHg 62%
    17:00 +5°C° 0 mm 2 mps 668 mmHg 67%
    18:00 +4°C° 0 mm 2 mps 668 mmHg 72%
    19:00 +3°C° 0 mm 2 mps 668 mmHg 75%
    20:00 +4°C° 0 mm 1 mps 668 mmHg 78%
    21:00 +3°C° 0 mm 1 mps 668 mmHg 81%
    22:00 +3°C° 0 mm 1 mps 668 mmHg 82%
    23:00 +2°C° 0 mm 1 mps 668 mmHg 83%

    26 February, Monday

    Time Temperature Precipitation Wind Pressure Humidity
    00:00 +2°C° 0 mm 1 mps 668 mmHg 84%
    01:00 +2°C° 0 mm 1 mps 667 mmHg 82%
    02:00 +1°C° 0 mm 1 mps 667 mmHg 79%
    03:00 +1°C° 0 mm 1 mps 667 mmHg 77%
    04:00 +1°C° 0 mm 1 mps 667 mmHg 72%
    05:00 +1°C° 0 mm 1 mps 667 mmHg 68%
    06:00 +1°C° 0 mm 1 mps 667 mmHg 63%
    07:00 +2°C° 0 mm 2 mps 667 mmHg 54%
    08:00 +5°C° 0 mm 2 mps 668 mmHg 46%
    09:00 +7°C° 0 mm 2 mps 668 mmHg 37%
    10:00 +9°C° 0 mm 3 mps 668 mmHg 35%
    11:00 +10°C° 0 mm 3 mps 668 mmHg 33%
    12:00 +12°C° 0 mm 4 mps 668 mmHg 30%
    13:00 +12°C° 0 mm 4 mps 667 mmHg 33%
    14:00 +12°C° 0 mm 4 mps 667 mmHg 36%
    15:00 +12°C° 0 mm 5 mps 666 mmHg 39%
    16:00 +11°C° 0 mm 4 mps 666 mmHg 44%
    17:00 +9°C° 0 mm 3 mps 665 mmHg 49%
    18:00 +7°C° 0 mm 3 mps 664 mmHg 54%
    19:00 +7°C° 0 mm 3 mps 664 mmHg 54%
    20:00 +7°C° 0 mm 3 mps 664 mmHg 53%
    21:00 +7°C° 0 mm 3 mps 664 mmHg 52%
    22:00 +7°C° 0 mm 3 mps 663 mmHg 51%
    23:00 +6°C° 0 mm 4 mps 663 mmHg 50%
    Show more